Year,Month,Day,Hour,Minute,Value (Times are PST for temperature in C)
2009,06,28,00,00,13.10
2009,06,28,00,01,13.20
2009,06,28,00,02,13.20
2009,06,28,00,03,13.20
2009,06,28,00,04,13.20
2009,06,28,00,05,13.20
2009,06,28,00,06,13.20
2009,06,28,00,07,13.20
2009,06,28,00,08,13.20
2009,06,28,00,09,13.20
2009,06,28,00,10,13.10
2009,06,28,00,11,13.10
2009,06,28,00,12,13.10
2009,06,28,00,13,13.10
2009,06,28,00,14,13.10
2009,06,28,00,15,13.10
2009,06,28,00,16,13.10
2009,06,28,00,17,13.10
2009,06,28,00,18,13.10
2009,06,28,00,19,13.20
2009,06,28,00,20,13.20
2009,06,28,00,21,13.20
2009,06,28,00,22,13.20
2009,06,28,00,23,13.20
2009,06,28,00,24,13.30
2009,06,28,00,25,13.30
2009,06,28,00,26,13.30
2009,06,28,00,27,13.30
2009,06,28,00,28,13.30
2009,06,28,00,29,13.30
2009,06,28,00,30,13.30
2009,06,28,00,31,13.30
2009,06,28,00,32,13.30
2009,06,28,00,33,13.30
2009,06,28,00,34,13.30
2009,06,28,00,35,13.20
2009,06,28,00,36,13.20
2009,06,28,00,37,13.10
2009,06,28,00,38,13.10
2009,06,28,00,39,13.00
2009,06,28,00,40,13.00
2009,06,28,00,41,12.90
2009,06,28,00,42,12.90
2009,06,28,00,43,12.90
2009,06,28,00,44,12.90
2009,06,28,00,45,12.90
2009,06,28,00,46,12.80
2009,06,28,00,47,12.80
2009,06,28,00,48,12.80
2009,06,28,00,49,12.80
2009,06,28,00,50,12.80
2009,06,28,00,51,12.70
2009,06,28,00,52,12.70
2009,06,28,00,53,12.60
2009,06,28,00,54,12.60
2009,06,28,00,55,12.60
2009,06,28,00,56,12.60
2009,06,28,00,57,12.70
2009,06,28,00,58,12.70
2009,06,28,00,59,12.70
2009,06,28,01,00,12.60
2009,06,28,01,01,12.60
2009,06,28,01,02,12.70
2009,06,28,01,03,12.70
2009,06,28,01,04,12.70
2009,06,28,01,05,12.70
2009,06,28,01,06,12.70
2009,06,28,01,07,12.70
2009,06,28,01,08,12.70
2009,06,28,01,09,12.70
2009,06,28,01,10,12.60
2009,06,28,01,11,12.60
2009,06,28,01,12,12.60
2009,06,28,01,13,12.60
2009,06,28,01,14,12.50
2009,06,28,01,15,12.50
2009,06,28,01,16,12.50
2009,06,28,01,17,12.40
2009,06,28,01,18,12.40
2009,06,28,01,19,12.40
2009,06,28,01,20,12.30
2009,06,28,01,21,12.30
2009,06,28,01,22,12.30
2009,06,28,01,23,12.30
2009,06,28,01,24,12.30
2009,06,28,01,25,12.30
2009,06,28,01,26,12.30
2009,06,28,01,27,12.30
2009,06,28,01,28,12.20
2009,06,28,01,29,12.20
2009,06,28,01,30,12.20
2009,06,28,01,31,12.20
2009,06,28,01,32,12.10
2009,06,28,01,33,12.10
2009,06,28,01,34,12.10
2009,06,28,01,35,12.10
2009,06,28,01,36,12.10
2009,06,28,01,37,12.00
2009,06,28,01,38,12.00
2009,06,28,01,39,12.00
2009,06,28,01,40,12.00
2009,06,28,01,41,11.90
2009,06,28,01,42,11.90
2009,06,28,01,43,11.90
2009,06,28,01,44,11.90
2009,06,28,01,45,11.90
2009,06,28,01,46,11.90
2009,06,28,01,47,11.90
2009,06,28,01,48,12.00
2009,06,28,01,49,12.00
2009,06,28,01,50,12.00
2009,06,28,01,51,12.00
2009,06,28,01,52,12.10
2009,06,28,01,53,12.20
2009,06,28,01,54,12.30
2009,06,28,01,55,12.30
2009,06,28,01,56,12.30
2009,06,28,01,57,12.30
2009,06,28,01,58,12.30
2009,06,28,01,59,12.20
2009,06,28,02,00,12.20
2009,06,28,02,01,12.10
2009,06,28,02,02,12.10
2009,06,28,02,03,12.00
2009,06,28,02,04,12.00
2009,06,28,02,05,12.00
2009,06,28,02,06,11.90
2009,06,28,02,07,11.90
2009,06,28,02,08,11.80
2009,06,28,02,09,11.80
2009,06,28,02,10,11.80
2009,06,28,02,11,11.80
2009,06,28,02,12,11.80
2009,06,28,02,13,11.80
2009,06,28,02,14,11.80
2009,06,28,02,15,11.80
2009,06,28,02,16,11.80
2009,06,28,02,17,11.80
2009,06,28,02,18,11.70
2009,06,28,02,19,11.70
2009,06,28,02,20,11.70
2009,06,28,02,21,11.60
2009,06,28,02,22,11.60
2009,06,28,02,23,11.60
2009,06,28,02,24,11.60
2009,06,28,02,25,11.50
2009,06,28,02,26,11.40
2009,06,28,02,27,11.40
2009,06,28,02,28,11.40
2009,06,28,02,29,11.40
2009,06,28,02,30,11.40
2009,06,28,02,31,11.30
2009,06,28,02,32,11.30
2009,06,28,02,33,11.30
2009,06,28,02,34,11.40
2009,06,28,02,35,11.40
2009,06,28,02,36,11.40
2009,06,28,02,37,11.40
2009,06,28,02,38,11.40
2009,06,28,02,39,11.40
2009,06,28,02,40,11.40
2009,06,28,02,41,11.50
2009,06,28,02,42,11.50
2009,06,28,02,43,11.40
2009,06,28,02,44,11.40
2009,06,28,02,45,11.40
2009,06,28,02,46,11.30
2009,06,28,02,47,11.30
2009,06,28,02,48,11.20
2009,06,28,02,49,11.20
2009,06,28,02,50,11.20
2009,06,28,02,51,11.20
2009,06,28,02,52,11.20
2009,06,28,02,53,11.10
2009,06,28,02,54,11.10
2009,06,28,02,55,11.10
2009,06,28,02,56,11.10
2009,06,28,02,57,11.10
2009,06,28,02,58,11.10
2009,06,28,02,59,11.10
2009,06,28,03,00,11.10
2009,06,28,03,01,11.10
2009,06,28,03,02,11.10
2009,06,28,03,03,11.10
2009,06,28,03,04,11.10
2009,06,28,03,05,11.10
2009,06,28,03,06,11.10
2009,06,28,03,07,11.00
2009,06,28,03,08,10.90
2009,06,28,03,09,11.00
2009,06,28,03,10,11.10
2009,06,28,03,11,11.10
2009,06,28,03,12,11.10
2009,06,28,03,13,11.10
2009,06,28,03,14,11.20
2009,06,28,03,15,11.10
2009,06,28,03,16,11.20
2009,06,28,03,17,11.20
2009,06,28,03,18,11.20
2009,06,28,03,19,11.20
2009,06,28,03,20,11.20
2009,06,28,03,21,11.20
2009,06,28,03,22,11.10
2009,06,28,03,23,11.10
2009,06,28,03,24,11.10
2009,06,28,03,25,11.10
2009,06,28,03,26,11.00
2009,06,28,03,27,10.90
2009,06,28,03,28,10.90
2009,06,28,03,29,10.90
2009,06,28,03,30,10.90
2009,06,28,03,31,10.80
2009,06,28,03,32,10.80
2009,06,28,03,33,10.70
2009,06,28,03,34,10.60
2009,06,28,03,35,10.60
2009,06,28,03,36,10.60
2009,06,28,03,37,10.60
2009,06,28,03,38,10.60
2009,06,28,03,39,10.60
2009,06,28,03,40,10.60
2009,06,28,03,41,10.60
2009,06,28,03,42,10.50
2009,06,28,03,43,10.40
2009,06,28,03,44,10.40
2009,06,28,03,45,10.40
2009,06,28,03,46,10.40
2009,06,28,03,47,10.40
2009,06,28,03,48,10.40
2009,06,28,03,49,10.40
2009,06,28,03,50,10.40
2009,06,28,03,51,10.40
2009,06,28,03,52,10.40
2009,06,28,03,53,10.40
2009,06,28,03,54,10.40
2009,06,28,03,55,10.40
2009,06,28,03,56,10.40
2009,06,28,03,57,10.40
2009,06,28,03,58,10.40
2009,06,28,03,59,10.40
2009,06,28,04,00,10.40
2009,06,28,04,01,10.40
2009,06,28,04,02,10.40
2009,06,28,04,03,10.40
2009,06,28,04,04,10.40
2009,06,28,04,05,10.40
2009,06,28,04,06,10.40
2009,06,28,04,07,10.40
2009,06,28,04,08,10.30
2009,06,28,04,09,10.30
2009,06,28,04,10,10.30
2009,06,28,04,11,10.30
2009,06,28,04,12,10.30
2009,06,28,04,13,10.30
2009,06,28,04,14,10.30
2009,06,28,04,15,10.20
2009,06,28,04,16,10.20
2009,06,28,04,17,10.20
2009,06,28,04,18,10.20
2009,06,28,04,19,10.20
2009,06,28,04,20,10.20
2009,06,28,04,21,10.20
2009,06,28,04,22,10.20
2009,06,28,04,23,10.10
2009,06,28,04,24,10.10
2009,06,28,04,25,10.10
2009,06,28,04,26,10.10
2009,06,28,04,27,10.00
2009,06,28,04,28,9.90
2009,06,28,04,29,9.90
2009,06,28,04,30,9.90
2009,06,28,04,31,9.90
2009,06,28,04,32,9.90
2009,06,28,04,33,9.90
2009,06,28,04,34,9.80
2009,06,28,04,35,9.80
2009,06,28,04,36,9.70
2009,06,28,04,37,9.70
2009,06,28,04,38,9.70
2009,06,28,04,39,9.70
2009,06,28,04,40,9.70
2009,06,28,04,41,9.70
2009,06,28,04,42,9.70
2009,06,28,04,43,9.70
2009,06,28,04,44,9.70
2009,06,28,04,45,9.70
2009,06,28,04,46,9.60
2009,06,28,04,47,9.60
2009,06,28,04,48,9.70
2009,06,28,04,49,9.70
2009,06,28,04,50,9.70
2009,06,28,04,51,9.70
2009,06,28,04,52,9.70
2009,06,28,04,53,9.70
2009,06,28,04,54,9.70
2009,06,28,04,55,9.60
2009,06,28,04,56,9.60
2009,06,28,04,57,9.60
2009,06,28,04,58,9.60
2009,06,28,04,59,9.60
2009,06,28,05,00,9.60
2009,06,28,05,01,9.60
2009,06,28,05,02,9.60
2009,06,28,05,03,9.60
2009,06,28,05,04,9.60
2009,06,28,05,05,9.60
2009,06,28,05,06,9.60
2009,06,28,05,07,9.60
2009,06,28,05,08,9.60
2009,06,28,05,09,9.60
2009,06,28,05,10,9.60
2009,06,28,05,11,9.60
2009,06,28,05,12,9.70
2009,06,28,05,13,9.70
2009,06,28,05,14,9.70
2009,06,28,05,15,9.70
2009,06,28,05,16,9.70
2009,06,28,05,17,9.70
2009,06,28,05,18,9.70
2009,06,28,05,19,9.70
2009,06,28,05,20,9.60
2009,06,28,05,21,9.60
2009,06,28,05,22,9.60
2009,06,28,05,23,9.60
2009,06,28,05,24,9.60
2009,06,28,05,25,9.60
2009,06,28,05,26,9.60
2009,06,28,05,27,9.60
2009,06,28,05,28,9.60
2009,06,28,05,29,9.60
2009,06,28,05,30,9.60
2009,06,28,05,31,9.60
2009,06,28,05,32,9.60
2009,06,28,05,33,9.60
2009,06,28,05,34,9.60
2009,06,28,05,35,9.60
2009,06,28,05,36,9.60
2009,06,28,05,37,9.60
2009,06,28,05,38,9.60
2009,06,28,05,39,9.60
2009,06,28,05,40,9.60
2009,06,28,05,41,9.60
2009,06,28,05,42,9.60
2009,06,28,05,43,9.60
2009,06,28,05,44,9.60
2009,06,28,05,45,9.60
2009,06,28,05,46,9.60
2009,06,28,05,47,9.60
2009,06,28,05,48,9.60
2009,06,28,05,49,9.60
2009,06,28,05,50,9.60
2009,06,28,05,51,9.60
2009,06,28,05,52,9.60
2009,06,28,05,53,9.60
2009,06,28,05,54,9.60
2009,06,28,05,55,9.60
2009,06,28,05,56,9.60
2009,06,28,05,57,9.60
2009,06,28,05,58,9.60
2009,06,28,05,59,9.70
2009,06,28,06,00,9.70
2009,06,28,06,01,9.70
2009,06,28,06,02,9.70
2009,06,28,06,03,9.70
2009,06,28,06,04,9.70
2009,06,28,06,05,9.70
2009,06,28,06,06,9.70
2009,06,28,06,07,9.70
2009,06,28,06,08,9.70
2009,06,28,06,09,9.70
2009,06,28,06,10,9.70
2009,06,28,06,11,9.80
2009,06,28,06,12,9.80
2009,06,28,06,13,9.80
2009,06,28,06,14,9.80
2009,06,28,06,15,9.80
2009,06,28,06,16,9.80
2009,06,28,06,17,9.90
2009,06,28,06,18,9.90
2009,06,28,06,19,9.90
2009,06,28,06,20,9.90
2009,06,28,06,21,9.90
2009,06,28,06,22,9.90
2009,06,28,06,23,9.90
2009,06,28,06,24,9.90
2009,06,28,06,25,9.90
2009,06,28,06,26,9.90
2009,06,28,06,27,10.10
2009,06,28,06,28,10.10
2009,06,28,06,29,10.10
2009,06,28,06,30,10.10
2009,06,28,06,31,10.10
2009,06,28,06,32,10.10
2009,06,28,06,33,10.10
2009,06,28,06,34,10.10
2009,06,28,06,35,10.10
2009,06,28,06,36,10.10
2009,06,28,06,37,10.10
2009,06,28,06,38,10.20
2009,06,28,06,39,10.20
2009,06,28,06,40,10.20
2009,06,28,06,41,10.20
2009,06,28,06,42,10.20
2009,06,28,06,43,10.20
2009,06,28,06,44,10.30
2009,06,28,06,45,10.30
2009,06,28,06,46,10.30
2009,06,28,06,47,10.30
2009,06,28,06,48,10.30
2009,06,28,06,49,10.40
2009,06,28,06,50,10.40
2009,06,28,06,51,10.40
2009,06,28,06,52,10.40
2009,06,28,06,53,10.40
2009,06,28,06,54,10.40
2009,06,28,06,55,10.40
2009,06,28,06,56,10.40
2009,06,28,06,57,10.40
2009,06,28,06,58,10.40
2009,06,28,06,59,10.50
2009,06,28,07,00,10.60
2009,06,28,07,01,10.60
2009,06,28,07,02,10.60
2009,06,28,07,03,10.60
2009,06,28,07,04,10.60
2009,06,28,07,05,10.60
2009,06,28,07,06,10.60
2009,06,28,07,07,10.60
2009,06,28,07,08,10.60
2009,06,28,07,09,10.60
2009,06,28,07,10,10.60
2009,06,28,07,11,10.60
2009,06,28,07,12,10.70
2009,06,28,07,13,10.70
2009,06,28,07,14,10.70
2009,06,28,07,15,10.80
2009,06,28,07,16,10.80
2009,06,28,07,17,10.80
2009,06,28,07,18,10.80
2009,06,28,07,19,10.80
2009,06,28,07,20,10.80
2009,06,28,07,21,10.80
2009,06,28,07,22,10.80
2009,06,28,07,23,10.80
2009,06,28,07,24,10.90
2009,06,28,07,25,10.90
2009,06,28,07,26,10.90
2009,06,28,07,27,10.90
2009,06,28,07,28,11.00
2009,06,28,07,29,11.10
2009,06,28,07,30,11.10
2009,06,28,07,31,11.10
2009,06,28,07,32,11.10
2009,06,28,07,33,11.10
2009,06,28,07,34,11.10
2009,06,28,07,35,11.10
2009,06,28,07,36,11.10
2009,06,28,07,37,11.20
2009,06,28,07,38,11.20
2009,06,28,07,39,11.20
2009,06,28,07,40,11.20
2009,06,28,07,41,11.30
2009,06,28,07,42,11.30
2009,06,28,07,43,11.30
2009,06,28,07,44,11.30
2009,06,28,07,45,11.30
2009,06,28,07,46,11.40
2009,06,28,07,47,11.40
2009,06,28,07,48,11.40
2009,06,28,07,49,11.40
2009,06,28,07,50,11.50
2009,06,28,07,51,11.60
2009,06,28,07,52,11.60
2009,06,28,07,53,11.60
2009,06,28,07,54,11.60
2009,06,28,07,55,11.70
2009,06,28,07,56,11.70
2009,06,28,07,57,11.70
2009,06,28,07,58,11.80
2009,06,28,07,59,11.80
2009,06,28,08,00,11.80
2009,06,28,08,01,11.80
2009,06,28,08,02,11.90
2009,06,28,08,03,11.80
2009,06,28,08,04,11.80
2009,06,28,08,05,11.80
2009,06,28,08,06,11.80
2009,06,28,08,07,11.80
2009,06,28,08,08,11.80
2009,06,28,08,09,11.80
2009,06,28,08,10,11.80
2009,06,28,08,11,11.80
2009,06,28,08,12,11.90
2009,06,28,08,13,11.90
2009,06,28,08,14,11.90
2009,06,28,08,15,11.90
2009,06,28,08,16,11.90
2009,06,28,08,17,12.00
2009,06,28,08,18,12.00
2009,06,28,08,19,12.10
2009,06,28,08,20,12.10
2009,06,28,08,21,12.10
2009,06,28,08,22,12.10
2009,06,28,08,23,12.10
2009,06,28,08,24,12.20
2009,06,28,08,25,12.20
2009,06,28,08,26,12.20
2009,06,28,08,27,12.30
2009,06,28,08,28,12.30
2009,06,28,08,29,12.30
2009,06,28,08,30,12.40
2009,06,28,08,31,12.40
2009,06,28,08,32,12.40
2009,06,28,08,33,12.50
2009,06,28,08,34,12.50
2009,06,28,08,35,12.50
2009,06,28,08,36,12.50
2009,06,28,08,37,12.60
2009,06,28,08,38,12.70
2009,06,28,08,39,12.70
2009,06,28,08,40,12.80
2009,06,28,08,41,12.80
2009,06,28,08,42,12.80
2009,06,28,08,43,12.80
2009,06,28,08,44,12.80
2009,06,28,08,45,12.90
2009,06,28,08,46,12.90
2009,06,28,08,47,12.90
2009,06,28,08,48,12.90
2009,06,28,08,49,12.90
2009,06,28,08,50,12.90
2009,06,28,08,51,12.90
2009,06,28,08,52,12.90
2009,06,28,08,53,13.00
2009,06,28,08,54,13.00
2009,06,28,08,55,13.10
2009,06,28,08,56,13.20
2009,06,28,08,57,13.30
2009,06,28,08,58,13.40
2009,06,28,08,59,13.50
2009,06,28,09,00,13.50
2009,06,28,09,01,13.60
2009,06,28,09,02,13.60
2009,06,28,09,03,13.70
2009,06,28,09,04,13.70
2009,06,28,09,05,13.70
2009,06,28,09,06,13.80
2009,06,28,09,07,13.90
2009,06,28,09,08,14.00
2009,06,28,09,09,14.00
2009,06,28,09,10,14.00
2009,06,28,09,11,14.10
2009,06,28,09,12,14.10
2009,06,28,09,13,14.10
2009,06,28,09,14,14.20
2009,06,28,09,15,14.20
2009,06,28,09,16,14.20
2009,06,28,09,17,14.20
2009,06,28,09,18,14.20
2009,06,28,09,19,14.20
2009,06,28,09,20,14.20
2009,06,28,09,21,14.30
2009,06,28,09,22,14.40
2009,06,28,09,23,14.40
2009,06,28,09,24,14.40
2009,06,28,09,25,14.30
2009,06,28,09,26,14.30
2009,06,28,09,27,14.30
2009,06,28,09,28,14.40
2009,06,28,09,29,14.50
2009,06,28,09,30,14.60
2009,06,28,09,31,14.70
2009,06,28,09,32,14.80
2009,06,28,09,33,14.90
2009,06,28,09,34,15.10
2009,06,28,09,35,15.20
2009,06,28,09,36,15.20
2009,06,28,09,37,15.10
2009,06,28,09,38,15.10
2009,06,28,09,39,15.20
2009,06,28,09,40,15.20
2009,06,28,09,41,15.20
2009,06,28,09,42,15.20
2009,06,28,09,43,15.20
2009,06,28,09,44,15.10
2009,06,28,09,45,15.00
2009,06,28,09,46,14.90
2009,06,28,09,47,14.90
2009,06,28,09,48,14.90
2009,06,28,09,49,14.90
2009,06,28,09,50,15.00
2009,06,28,09,51,15.00
2009,06,28,09,52,15.10
2009,06,28,09,53,15.10
2009,06,28,09,54,15.20
2009,06,28,09,55,15.30
2009,06,28,09,56,15.30
2009,06,28,09,57,15.30
2009,06,28,09,58,15.30
2009,06,28,09,59,15.30
2009,06,28,10,00,15.40
2009,06,28,10,01,15.50
2009,06,28,10,02,15.50
2009,06,28,10,03,15.50
2009,06,28,10,04,15.50
2009,06,28,10,05,15.40
2009,06,28,10,06,15.40
2009,06,28,10,07,15.50
2009,06,28,10,08,15.60
2009,06,28,10,09,15.70
2009,06,28,10,10,15.70
2009,06,28,10,11,15.80
2009,06,28,10,12,15.80
2009,06,28,10,13,15.80
2009,06,28,10,14,15.80
2009,06,28,10,15,15.80
2009,06,28,10,16,16.00
2009,06,28,10,17,16.10
2009,06,28,10,18,16.10
2009,06,28,10,19,16.10
2009,06,28,10,20,16.20
2009,06,28,10,21,16.20
2009,06,28,10,22,16.10
2009,06,28,10,23,16.10
2009,06,28,10,24,16.00
2009,06,28,10,25,16.10
2009,06,28,10,26,16.10
2009,06,28,10,27,16.10
2009,06,28,10,28,16.20
2009,06,28,10,29,16.30
2009,06,28,10,30,16.30
2009,06,28,10,31,16.40
2009,06,28,10,32,16.40
2009,06,28,10,33,16.40
2009,06,28,10,34,16.30
2009,06,28,10,35,16.30
2009,06,28,10,36,16.20
2009,06,28,10,37,16.10
2009,06,28,10,38,16.10
2009,06,28,10,39,16.10
2009,06,28,10,40,16.00
2009,06,28,10,41,16.00
2009,06,28,10,42,16.10
2009,06,28,10,43,16.20
2009,06,28,10,44,16.20
2009,06,28,10,45,16.10
2009,06,28,10,46,16.10
2009,06,28,10,47,16.20
2009,06,28,10,48,16.20
2009,06,28,10,49,16.20
2009,06,28,10,50,16.30
2009,06,28,10,51,16.30
2009,06,28,10,52,16.40
2009,06,28,10,53,16.40
2009,06,28,10,54,16.50
2009,06,28,10,55,16.70
2009,06,28,10,56,16.80
2009,06,28,10,57,16.90
2009,06,28,10,58,17.00
2009,06,28,10,59,17.20
2009,06,28,11,00,17.30
2009,06,28,11,01,17.10
2009,06,28,11,02,17.10
2009,06,28,11,03,17.00
2009,06,28,11,04,16.80
2009,06,28,11,05,16.70
2009,06,28,11,06,16.70
2009,06,28,11,07,16.70
2009,06,28,11,08,16.70
2009,06,28,11,09,16.70
2009,06,28,11,10,16.80
2009,06,28,11,11,16.90
2009,06,28,11,12,16.90
2009,06,28,11,13,16.60
2009,06,28,11,14,16.30
2009,06,28,11,15,16.10
2009,06,28,11,16,16.00
2009,06,28,11,17,15.80
2009,06,28,11,18,15.80
2009,06,28,11,19,15.80
2009,06,28,11,20,15.80
2009,06,28,11,21,15.70
2009,06,28,11,22,15.70
2009,06,28,11,23,15.80
2009,06,28,11,24,15.80
2009,06,28,11,25,15.90
2009,06,28,11,26,16.00
2009,06,28,11,27,16.10
2009,06,28,11,28,16.10
2009,06,28,11,29,16.10
2009,06,28,11,30,16.00
2009,06,28,11,31,16.00
2009,06,28,11,32,16.10
2009,06,28,11,33,16.30
2009,06,28,11,34,16.40
2009,06,28,11,35,16.40
2009,06,28,11,36,16.40
2009,06,28,11,37,16.40
2009,06,28,11,38,16.30
2009,06,28,11,39,16.30
2009,06,28,11,40,16.30
2009,06,28,11,41,16.30
2009,06,28,11,42,16.30
2009,06,28,11,43,16.30
2009,06,28,11,44,16.30
2009,06,28,11,45,16.30
2009,06,28,11,46,16.30
2009,06,28,11,47,16.30
2009,06,28,11,48,16.30
2009,06,28,11,49,16.40
2009,06,28,11,50,16.40
2009,06,28,11,51,16.40
2009,06,28,11,52,16.40
2009,06,28,11,53,16.50
2009,06,28,11,54,16.60
2009,06,28,11,55,16.40
2009,06,28,11,56,16.40
2009,06,28,11,57,16.40
2009,06,28,11,58,16.50
2009,06,28,11,59,16.70
2009,06,28,12,00,16.70
2009,06,28,12,01,16.60
2009,06,28,12,02,16.50
2009,06,28,12,03,16.50
2009,06,28,12,04,16.70
2009,06,28,12,05,16.80
2009,06,28,12,06,16.90
2009,06,28,12,07,17.00
2009,06,28,12,08,17.10
2009,06,28,12,09,17.10
2009,06,28,12,10,17.30
2009,06,28,12,11,17.30
2009,06,28,12,12,17.30
2009,06,28,12,13,17.20
2009,06,28,12,14,17.20
2009,06,28,12,15,17.10
2009,06,28,12,16,17.10
2009,06,28,12,17,17.00
2009,06,28,12,18,17.00
2009,06,28,12,19,17.00
2009,06,28,12,20,17.00
2009,06,28,12,21,17.00
2009,06,28,12,22,17.10
2009,06,28,12,23,17.10
2009,06,28,12,24,17.20
2009,06,28,12,25,17.20
2009,06,28,12,26,17.20
2009,06,28,12,27,17.10
2009,06,28,12,28,17.00
2009,06,28,12,29,16.90
2009,06,28,12,30,16.90
2009,06,28,12,31,17.00
2009,06,28,12,32,17.00
2009,06,28,12,33,17.10
2009,06,28,12,34,17.20
2009,06,28,12,35,17.20
2009,06,28,12,36,17.10
2009,06,28,12,37,17.00
2009,06,28,12,38,17.10
2009,06,28,12,39,17.20
2009,06,28,12,40,17.20
2009,06,28,12,41,17.10
2009,06,28,12,42,16.90
2009,06,28,12,43,16.70
2009,06,28,12,44,16.70
2009,06,28,12,45,16.50
2009,06,28,12,46,16.40
2009,06,28,12,47,16.40
2009,06,28,12,48,16.40
2009,06,28,12,49,16.40
2009,06,28,12,50,16.40
2009,06,28,12,51,16.40
2009,06,28,12,52,16.30
2009,06,28,12,53,16.20
2009,06,28,12,54,16.20
2009,06,28,12,55,16.20
2009,06,28,12,56,16.10
2009,06,28,12,57,16.10
2009,06,28,12,58,16.10
2009,06,28,12,59,16.10
2009,06,28,13,00,16.10
2009,06,28,13,01,16.20
2009,06,28,13,02,16.30
2009,06,28,13,03,16.30
2009,06,28,13,04,16.20
2009,06,28,13,05,16.20
2009,06,28,13,06,16.20
2009,06,28,13,07,16.20
2009,06,28,13,08,16.10
2009,06,28,13,09,16.10
2009,06,28,13,10,16.20
2009,06,28,13,11,16.30
2009,06,28,13,12,16.30
2009,06,28,13,13,16.30
2009,06,28,13,14,16.30
2009,06,28,13,15,16.20
2009,06,28,13,16,16.20
2009,06,28,13,17,16.30
2009,06,28,13,18,16.30
2009,06,28,13,19,16.30
2009,06,28,13,20,16.40
2009,06,28,13,21,16.60
2009,06,28,13,22,16.70
2009,06,28,13,23,16.80
2009,06,28,13,24,16.90
2009,06,28,13,25,16.90
2009,06,28,13,26,17.00
2009,06,28,13,27,17.00
2009,06,28,13,28,17.00
2009,06,28,13,29,16.90
2009,06,28,13,30,16.70
2009,06,28,13,31,16.80
2009,06,28,13,32,16.90
2009,06,28,13,33,17.00
2009,06,28,13,34,17.00
2009,06,28,13,35,16.90
2009,06,28,13,36,16.70
2009,06,28,13,37,16.60
2009,06,28,13,38,16.50
2009,06,28,13,39,16.40
2009,06,28,13,40,16.40
2009,06,28,13,41,16.40
2009,06,28,13,42,16.40
2009,06,28,13,43,16.40
2009,06,28,13,44,16.40
2009,06,28,13,45,16.50
2009,06,28,13,46,16.50
2009,06,28,13,47,16.40
2009,06,28,13,48,16.60
2009,06,28,13,49,16.90
2009,06,28,13,50,17.10
2009,06,28,13,51,17.30
2009,06,28,13,52,17.50
2009,06,28,13,53,17.50
2009,06,28,13,54,17.40
2009,06,28,13,55,17.30
2009,06,28,13,56,17.30
2009,06,28,13,57,17.20
2009,06,28,13,58,17.00
2009,06,28,13,59,16.80
2009,06,28,14,00,16.80
2009,06,28,14,01,16.80
2009,06,28,14,02,16.80
2009,06,28,14,03,16.80
2009,06,28,14,04,16.70
2009,06,28,14,05,16.70
2009,06,28,14,06,16.70
2009,06,28,14,07,16.70
2009,06,28,14,08,16.80
2009,06,28,14,09,16.90
2009,06,28,14,10,17.10
2009,06,28,14,11,17.30
2009,06,28,14,12,17.30
2009,06,28,14,13,17.30
2009,06,28,14,14,17.30
2009,06,28,14,15,17.20
2009,06,28,14,16,17.20
2009,06,28,14,17,17.20
2009,06,28,14,18,17.30
2009,06,28,14,19,17.20
2009,06,28,14,20,17.10
2009,06,28,14,21,17.00
2009,06,28,14,22,17.00
2009,06,28,14,23,17.10
2009,06,28,14,24,17.30
2009,06,28,14,25,17.30
2009,06,28,14,26,17.20
2009,06,28,14,27,17.20
2009,06,28,14,28,17.20
2009,06,28,14,29,17.20
2009,06,28,14,30,17.30
2009,06,28,14,31,17.30
2009,06,28,14,32,17.30
2009,06,28,14,33,17.30
2009,06,28,14,34,17.40
2009,06,28,14,35,17.40
2009,06,28,14,36,17.50
2009,06,28,14,37,17.50
2009,06,28,14,38,17.40
2009,06,28,14,39,17.40
2009,06,28,14,40,17.30
2009,06,28,14,41,17.30
2009,06,28,14,42,17.30
2009,06,28,14,43,17.20
2009,06,28,14,44,17.10
2009,06,28,14,45,17.10
2009,06,28,14,46,17.20
2009,06,28,14,47,17.30
2009,06,28,14,48,17.30
2009,06,28,14,49,17.40
2009,06,28,14,50,17.40
2009,06,28,14,51,17.50
2009,06,28,14,52,17.40
2009,06,28,14,53,17.30
2009,06,28,14,54,17.30
2009,06,28,14,55,17.20
2009,06,28,14,56,17.20
2009,06,28,14,57,17.20
2009,06,28,14,58,17.20
2009,06,28,14,59,17.10
2009,06,28,15,00,17.00
2009,06,28,15,01,16.90
2009,06,28,15,02,16.90
2009,06,28,15,03,16.90
2009,06,28,15,04,16.90
2009,06,28,15,05,16.90
2009,06,28,15,06,16.90
2009,06,28,15,07,16.80
2009,06,28,15,08,16.80
2009,06,28,15,09,16.90
2009,06,28,15,10,17.00
2009,06,28,15,11,17.00
2009,06,28,15,12,17.10
2009,06,28,15,13,17.10
2009,06,28,15,14,17.10
2009,06,28,15,15,17.10
2009,06,28,15,16,17.10
2009,06,28,15,17,17.10
2009,06,28,15,18,17.00
2009,06,28,15,19,17.00
2009,06,28,15,20,17.00
2009,06,28,15,21,17.00
2009,06,28,15,22,17.00
2009,06,28,15,23,17.00
2009,06,28,15,24,17.00
2009,06,28,15,25,17.10
2009,06,28,15,26,17.10
2009,06,28,15,27,17.10
2009,06,28,15,28,17.10
2009,06,28,15,29,17.20
2009,06,28,15,30,17.30
2009,06,28,15,31,17.30
2009,06,28,15,32,17.40
2009,06,28,15,33,17.50
2009,06,28,15,34,17.50
2009,06,28,15,35,17.50
2009,06,28,15,36,17.50
2009,06,28,15,37,17.50
2009,06,28,15,38,17.60
2009,06,28,15,39,17.70
2009,06,28,15,40,17.80
2009,06,28,15,41,17.80
2009,06,28,15,42,17.70
2009,06,28,15,43,17.60
2009,06,28,15,44,17.50
2009,06,28,15,45,17.40
2009,06,28,15,46,17.40
2009,06,28,15,47,17.50
2009,06,28,15,48,17.60
2009,06,28,15,49,17.70
2009,06,28,15,50,17.80
2009,06,28,15,51,17.90
2009,06,28,15,52,17.90
2009,06,28,15,53,17.90
2009,06,28,15,54,17.90
2009,06,28,15,55,17.80
2009,06,28,15,56,17.80
2009,06,28,15,57,17.70
2009,06,28,15,58,17.60
2009,06,28,15,59,17.40
2009,06,28,16,00,17.30
2009,06,28,16,01,17.30
2009,06,28,16,02,17.40
2009,06,28,16,03,17.50
2009,06,28,16,04,17.60
2009,06,28,16,05,17.50
2009,06,28,16,06,17.50
2009,06,28,16,07,17.40
2009,06,28,16,08,17.30
2009,06,28,16,09,17.30
2009,06,28,16,10,17.30
2009,06,28,16,11,17.30
2009,06,28,16,12,17.30
2009,06,28,16,13,17.20
2009,06,28,16,14,17.10
2009,06,28,16,15,17.10
2009,06,28,16,16,17.20
2009,06,28,16,17,17.40
2009,06,28,16,18,17.60
2009,06,28,16,19,17.80
2009,06,28,16,20,17.90
2009,06,28,16,21,17.90
2009,06,28,16,22,17.90
2009,06,28,16,23,18.00
2009,06,28,16,24,18.00
2009,06,28,16,25,18.20
2009,06,28,16,26,18.20
2009,06,28,16,27,18.20
2009,06,28,16,28,18.20
2009,06,28,16,29,18.10
2009,06,28,16,30,18.10
2009,06,28,16,31,18.10
2009,06,28,16,32,18.10
2009,06,28,16,33,18.00
2009,06,28,16,34,18.10
2009,06,28,16,35,18.20
2009,06,28,16,36,18.20
2009,06,28,16,37,18.10
2009,06,28,16,38,18.00
2009,06,28,16,39,17.90
2009,06,28,16,40,17.80
2009,06,28,16,41,17.60
2009,06,28,16,42,17.50
2009,06,28,16,43,17.40
2009,06,28,16,44,17.40
2009,06,28,16,45,17.50
2009,06,28,16,46,17.60
2009,06,28,16,47,17.70
2009,06,28,16,48,17.60
2009,06,28,16,49,17.50
2009,06,28,16,50,17.50
2009,06,28,16,51,17.40
2009,06,28,16,52,17.40
2009,06,28,16,53,17.40
2009,06,28,16,54,17.40
2009,06,28,16,55,17.30
2009,06,28,16,56,17.30
2009,06,28,16,57,17.20
2009,06,28,16,58,17.00
2009,06,28,16,59,16.90
2009,06,28,17,00,16.80
2009,06,28,17,01,16.70
2009,06,28,17,02,16.70
2009,06,28,17,03,16.70
2009,06,28,17,04,16.70
2009,06,28,17,05,16.80
2009,06,28,17,06,16.90
2009,06,28,17,07,17.00
2009,06,28,17,08,17.00
2009,06,28,17,09,17.10
2009,06,28,17,10,17.20
2009,06,28,17,11,17.30
2009,06,28,17,12,17.30
2009,06,28,17,13,17.40
2009,06,28,17,14,17.50
2009,06,28,17,15,17.50
2009,06,28,17,16,17.50
2009,06,28,17,17,17.60
2009,06,28,17,18,17.70
2009,06,28,17,19,17.70
2009,06,28,17,20,17.70
2009,06,28,17,21,17.80
2009,06,28,17,22,17.90
2009,06,28,17,23,17.90
2009,06,28,17,24,17.90